sat.trackr.live / text

‹ back to catalog

STARLINK-3673

NORAD 52093 · 2022-029F

PAYLOAD ACTIVE UNKNOWN

§ Identity

Operator
Country
US
Launch date
2022-03-19
Launch site
AFETR
Launch vehicle
Mass (kg)
RCS (m²)

Purposes: comms

External: N2YO · Heavens-Above · Gunter

§ Orbital elements

Epoch: 2026-05-25T04:21:23.696064Z

Period
95.44 min
Inclination
53.2151°
Eccentricity
0.0001523
Mean motion
15.08834632 rev/d
Perigee alt
538.7 km
Apogee alt
540.8 km
Semi-major
6,917.9 km
B*
-1.2925e-6
RAAN
105.7458°
Arg perigee
80.7452°
Mean anomaly
279.3713°
Rev number
23,220

§ Raw data

STARLINK-36731 52093U 22029F   26145.18152426 -.00000309  00000+0 -12925-5 0  99982 52093  53.2151 105.7458 0001523  80.7452 279.3713 15.08834632232206

JSON: /api/v1/satellites/52093 · /tle

For live sub-satellite position, see the globe view (requires WebGL).

§ Visibility from observer

Set your observer location to see the next 7 days of passes ≥ 10°. The values pass through the URL so the page stays shareable.

No JS? Fill the form by hand. The geolocation button needs JavaScript.